QPF
0.00 0.00 0.00 0.00 0.00 0.00 0.00 0.00 0.00 0.00 0.00 0.00 0.00 0.00 0.00 0.00 0.00 0.00 0.00 0.00 0.00 0.00 0.00 0.00 0.00 0.00 0.00 0.00 0.00 0.00 0.00 0.00
0.00 0.00 0.00 0.00 0.00 0.00 0.00 0.00 0.00 0.00 0.00 0.00 0.00 0.00 0.00 0.00 0.00 0.00 0.00 0.00 0.00 0.00 0.00 0.00 0.00 0.00 0.00 0.01 0.03 0.06 0.10 0.07
0.00 0.00 0.00 0.00 0.00 0.00 0.00 0.00 0.00 0.00 0.00 0.00 0.00 0.00 0.00 0.00 0.00 0.00 0.00 0.00 0.00 0.00 0.00 0.00 0.01 0.02 0.06 0.08 0.08 0.08 0.07 0.06
0.00 0.00 0.00 0.00 0.00 0.00 0.00 0.00 0.00 0.00 0.00 0.00 0.00 0.00 0.00 0.00 0.00 0.00 0.00 0.00 0.00 0.00 0.00 0.00 0.02 0.05 0.07 0.03 0.01 0.03 0.06 0.01
0.00 0.00 0.00 0.00 0.00 0.00 0.00 0.00 0.00 0.00 0.00 0.00 0.00 0.00 0.00 0.00 0.00 0.00 0.00 0.00 0.00 0.00 0.00 0.00 0.01 0.01 0.02 0.02 0.01 0.02 0.01 0.00
0.00 0.00 0.00 0.00 0.00 0.00 0.00 0.00 0.00 0.00 0.00 0.00 0.00 0.00 0.00 0.00 0.00 0.00 0.00 0.00 0.00 0.00 0.00 0.01 0.01 0.00 0.00 0.00 0.01 0.02 0.01 0.01
0.00 0.00 0.00 0.00 0.00 0.00 0.00 0.00 0.00 0.00 0.00 0.00 0.00 0.00 0.00 0.00 0.00 0.01 0.00 0.00 0.01 0.09 0.03 0.01 0.02 0.02 0.00 0.00 0.00 0.00 0.00 0.00
0.00 0.00 0.00 0.00 0.00 0.00 0.00 0.00 0.00 0.00 0.00 0.00 0.00 0.00 0.00 0.00 0.00 0.01 0.00 0.03 0.11 0.09 0.02 0.01 0.01 0.00 0.00 0.00 0.00 0.00 0.00 0.00
0.00 0.00 0.00 0.00 0.00 0.00 0.00 0.00 0.00 0.00 0.00 0.00 0.00 0.00 0.00 0.00 0.00 0.02 0.05 0.07 0.07 0.02 0.01 0.01 0.00 0.00 0.00 0.00 0.00 0.00 0.00 0.00
0.00 0.00 0.00 0.00 0.00 0.00 0.00 0.00 0.00 0.00 0.00 0.00 0.00 0.00 0.00 0.01 0.03 0.04 0.04 0.02 0.04 0.05 0.03 0.01 0.00 0.00 0.00 0.00 0.00 0.00 0.00 0.00
0.00 0.00 0.00 0.00 0.00 0.00 0.00 0.00 0.00 0.00 0.00 0.00 0.00 0.00 0.01 0.03 0.03 0.02 0.02 0.03 0.04 0.03 0.01 0.00 0.00 0.00 0.00 0.00 0.00 0.00 0.00 0.00
0.00 0.00 0.00 0.00 0.00 0.00 0.00 0.00 0.00 0.00 0.00 0.00 0.00 0.00 0.01 0.01 0.06 0.03 0.01 0.01 0.00 0.00 0.00 0.00 0.00 0.00 0.00 0.00 0.00 0.00 0.00 0.00
0.00 0.00 0.00 0.00 0.00 0.00 0.00 0.00 0.00 0.00 0.00 0.00 0.00 0.01 0.01 0.02 0.03 0.03 0.02 0.01 0.00 0.00 0.00 0.00 0.00 0.00 0.00 0.00 0.00 0.00 0.00 0.00
0.00 0.00 0.00 0.00 0.00 0.00 0.00 0.00 0.00 0.00 0.00 0.00 0.01 0.02 0.01 0.01 0.02 0.01 0.00 0.00 0.00 0.00 0.00 0.00 0.00 0.00 0.00 0.00 0.00 0.00 0.00 0.00
0.00 0.00 0.00 0.00 0.00 0.00 0.00 0.00 0.00 0.00 0.00 0.00 0.02 0.01 0.02 0.03 0.03 0.03 0.01 0.00 0.00 0.00 0.00 0.00 0.00 0.00 0.00 0.00 0.00 0.00 0.00 0.00
0.00 0.00 0.00 0.00 0.00 0.00 0.00 0.00 0.00 0.00 0.00 0.00 0.00 0.01 0.02 0.01 0.01 0.01 0.00 0.00 0.00 0.00 0.00 0.00 0.00 0.00 0.00 0.00 0.00 0.00 0.00 0.00
0.00 0.00 0.00 0.00 0.00 0.00 0.00 0.00 0.00 0.00 0.00 0.00 0.00 0.00 0.02 0.01 0.00 0.00 0.00 0.00 0.00 0.00 0.00 0.00 0.00 0.00 0.00 0.00 0.00 0.00 0.00 0.00
0.00 0.00 0.00 0.00 0.00 0.00 0.00 0.00 0.00 0.00 0.00 0.00 0.00 0.00 0.01 0.01 0.00 0.00 0.00 0.00 0.00 0.00 0.00 0.00 0.00 0.00 0.00 0.00 0.00 0.00 0.00 0.00
0.00 0.00 0.00 0.00 0.00 0.00 0.00 0.00 0.00 0.00 0.00 0.00 0.00 0.00 0.00 0.00 0.00 0.00 0.00 0.00 0.00 0.00 0.00 0.00 0.00 0.00 0.00 0.00 0.00 0.00 0.00 0.00
MSLP
997.99 998.64 999.38 1000.40 1001.22 1002.65 1004.03 1005.59 1006.87 1007.76 1008.28 1008.90 1009.09 1009.63 1010.28 1010.47 1011.01 1011.25 1011.85 1012.58 1012.95 1013.39 1013.37 1013.67 1014.08 1014.10 1014.27 1014.61 1014.80 1015.12 1015.16 1015.19
997.18 997.89 998.82 999.73 1000.62 1001.81 1003.07 1004.45 1005.82 1007.13 1007.43 1007.74 1007.93 1008.42 1009.21 1009.75 1009.99 1010.47 1011.08 1011.95 1012.40 1012.95 1013.22 1013.52 1013.68 1013.84 1014.19 1014.57 1014.81 1014.92 1015.34 1015.51
996.21 996.94 997.99 999.23 999.91 1000.80 1002.08 1003.12 1004.39 1005.65 1006.26 1006.54 1007.07 1007.53 1008.14 1008.80 1009.30 1010.01 1010.70 1011.57 1011.99 1012.60 1012.82 1012.89 1013.35 1013.52 1013.82 1014.21 1014.87 1015.20 1015.39 1015.71
995.86 996.37 997.09 998.46 999.39 1000.01 1000.85 1001.81 1002.89 1004.24 1004.96 1005.74 1006.46 1007.00 1007.47 1008.11 1008.71 1009.47 1010.29 1011.05 1011.49 1011.98 1012.34 1012.52 1013.04 1013.54 1014.01 1014.38 1014.80 1014.96 1015.41 1016.05
995.10 995.57 996.23 997.38 998.75 999.40 999.90 1000.75 1001.80 1002.98 1004.16 1004.29 1005.04 1005.29 1005.73 1006.48 1007.50 1008.64 1009.52 1010.33 1010.93 1011.43 1011.92 1012.38 1012.82 1013.40 1013.97 1014.48 1014.91 1015.24 1015.65 1016.12
994.11 994.48 995.13 996.07 997.71 998.71 999.13 999.74 1000.64 1001.65 1003.04 1003.31 1003.91 1004.61 1005.13 1005.93 1007.05 1007.99 1008.89 1009.97 1010.47 1011.02 1011.61 1012.31 1013.07 1013.82 1014.37 1014.83 1015.28 1015.70 1015.96 1016.22
992.71 993.51 993.94 994.73 995.63 997.58 998.48 998.95 999.48 1000.47 1001.78 1002.83 1003.16 1003.78 1004.34 1005.13 1006.29 1007.47 1008.51 1009.63 1010.50 1011.28 1012.09 1012.71 1013.54 1014.20 1014.62 1014.94 1015.22 1015.45 1015.58 1015.55
991.12 992.04 992.76 993.41 994.19 995.82 997.23 997.94 998.38 999.30 1000.39 1001.69 1002.52 1003.10 1003.81 1004.43 1005.69 1007.42 1008.82 1009.93 1010.67 1011.40 1011.87 1012.73 1013.37 1013.87 1014.27 1014.58 1014.89 1015.36 1015.68 1015.92
990.34 991.16 991.99 992.88 993.35 994.84 996.19 996.98 997.64 998.30 999.40 1000.58 1001.73 1002.59 1003.23 1004.05 1005.62 1007.39 1008.75 1009.56 1010.31 1011.04 1011.59 1012.27 1012.91 1013.57 1014.09 1014.67 1015.33 1015.95 1016.52 1016.84
989.46 990.33 991.16 992.06 992.86 993.86 995.40 996.52 996.90 997.46 998.59 1000.06 1001.04 1001.99 1002.70 1003.74 1005.72 1007.26 1008.41 1009.29 1010.17 1010.97 1011.38 1012.30 1012.88 1013.60 1014.38 1014.94 1015.47 1016.11 1016.81 1017.35
989.82 990.28 990.73 991.56 992.35 993.48 995.06 996.41 996.69 997.22 998.45 999.75 1000.52 1001.40 1002.45 1003.81 1005.47 1006.84 1007.81 1008.87 1009.76 1010.72 1011.41 1012.30 1013.16 1013.89 1014.41 1015.11 1015.84 1016.34 1016.77 1017.23
989.50 990.03 990.63 991.48 992.49 993.07 994.31 995.85 996.55 997.13 998.46 999.81 1000.74 1001.68 1002.69 1003.95 1005.23 1006.41 1007.48 1008.54 1009.40 1010.48 1011.45 1012.24 1013.05 1013.84 1014.56 1015.32 1016.05 1016.74 1016.99 1017.46
989.39 990.16 991.25 992.31 992.61 993.34 994.48 995.82 996.65 997.61 999.15 1000.22 1001.15 1002.12 1002.96 1004.00 1005.01 1005.95 1007.00 1007.93 1009.27 1010.25 1011.15 1012.10 1013.03 1013.78 1014.57 1015.34 1015.90 1016.58 1017.11 1017.76
989.62 990.82 992.10 993.13 993.70 994.31 995.64 996.95 998.08 998.81 999.63 1000.54 1001.60 1002.26 1003.09 1004.12 1004.97 1005.85 1006.82 1007.74 1009.02 1010.21 1011.11 1012.02 1012.92 1013.92 1014.84 1015.37 1015.93 1016.75 1017.25 1017.96
990.76 991.64 992.45 993.18 993.96 994.59 996.54 997.40 998.18 998.97 999.88 1000.70 1001.67 1002.29 1003.17 1004.19 1005.07 1005.86 1006.76 1007.82 1008.71 1009.93 1010.88 1011.94 1013.02 1013.97 1014.96 1015.59 1016.20 1017.03 1017.68 1018.38
991.26 991.76 992.62 993.37 994.29 994.93 996.43 997.51 998.31 999.03 999.89 1000.79 1001.56 1002.44 1003.27 1004.03 1004.77 1005.67 1006.77 1007.72 1008.80 1009.86 1010.98 1011.95 1013.20 1014.07 1014.90 1015.80 1016.42 1017.17 1018.12 1018.92
992.11 992.04 992.31 993.15 994.10 994.99 995.86 997.26 998.28 998.96 999.74 1000.56 1001.46 1002.43 1003.26 1003.79 1004.75 1005.69 1007.02 1008.01 1008.96 1010.02 1011.14 1012.00 1013.14 1014.22 1015.42 1016.01 1016.42 1017.39 1018.29 1018.85
991.46 992.50 992.63 992.81 993.57 994.43 995.24 996.63 998.19 999.11 999.83 1000.50 1001.19 1001.90 1002.77 1003.68 1004.71 1005.76 1006.89 1007.89 1008.89 1009.99 1011.01 1012.11 1013.49 1015.21 1015.95 1016.25 1016.87 1017.79 1018.56 1019.57
990.67 991.60 992.21 992.89 993.42 994.14 994.88 996.28 997.88 998.79 999.60 1000.38 1001.25 1001.89 1002.71 1003.71 1004.61 1005.56 1006.72 1007.79 1008.75 1009.84 1011.20 1012.53 1014.48 1015.65 1016.09 1016.88 1017.77 1018.52 1019.34 1020.02
Thickness
5788 5788 5786 5781 5777 5768 5758 5748 5740 5736 5735 5732 5732 5728 5725 5726 5722 5721 5717 5712 5711 5708 5709 5707 5704 5706 5705 5704 5701 5699 5697 5695
5789 5786 5783 5780 5775 5768 5759 5750 5742 5733 5732 5730 5732 5729 5726 5725 5726 5722 5718 5712 5710 5707 5705 5704 5703 5704 5702 5700 5697 5694 5690 5689
5783 5783 5779 5774 5772 5770 5760 5756 5747 5739 5736 5736 5733 5732 5730 5726 5725 5722 5717 5711 5709 5704 5703 5705 5703 5703 5700 5698 5691 5686 5685 5683
5771 5774 5773 5771 5766 5767 5765 5761 5753 5744 5741 5735 5730 5729 5728 5724 5724 5719 5715 5710 5707 5704 5702 5704 5700 5698 5694 5692 5688 5684 5676 5673
5767 5772 5771 5765 5763 5763 5768 5761 5753 5747 5738 5737 5730 5731 5728 5730 5724 5718 5714 5709 5706 5703 5699 5698 5697 5694 5689 5685 5682 5678 5672 5665
5765 5770 5773 5768 5763 5757 5759 5760 5753 5747 5739 5739 5735 5729 5730 5727 5721 5716 5712 5706 5702 5698 5695 5692 5688 5683 5680 5675 5672 5667 5664 5659
5772 5772 5775 5772 5766 5757 5752 5751 5751 5747 5741 5735 5733 5730 5727 5723 5720 5714 5708 5699 5694 5689 5684 5682 5677 5672 5670 5668 5666 5663 5661 5660
5772 5769 5768 5770 5768 5755 5754 5750 5748 5746 5741 5737 5731 5730 5725 5722 5717 5707 5695 5688 5684 5679 5679 5674 5670 5668 5665 5663 5661 5656 5651 5648
5769 5766 5764 5761 5765 5750 5750 5746 5743 5743 5739 5736 5730 5726 5722 5718 5712 5701 5689 5685 5680 5677 5674 5671 5667 5663 5658 5653 5648 5642 5636 5632
5764 5763 5759 5757 5755 5751 5747 5741 5743 5740 5736 5731 5727 5723 5719 5710 5703 5694 5686 5681 5676 5669 5666 5661 5659 5655 5648 5643 5639 5633 5626 5619
5749 5750 5752 5752 5751 5747 5740 5734 5734 5733 5729 5725 5724 5720 5713 5704 5696 5688 5682 5678 5672 5665 5660 5655 5649 5643 5639 5634 5628 5623 5618 5612
5744 5744 5744 5743 5742 5742 5736 5728 5726 5725 5722 5716 5712 5707 5702 5696 5690 5683 5678 5672 5667 5659 5652 5647 5641 5635 5630 5624 5616 5610 5607 5602
5739 5737 5732 5729 5732 5732 5725 5719 5716 5715 5709 5703 5698 5694 5692 5687 5682 5678 5674 5669 5660 5654 5648 5640 5633 5627 5621 5614 5608 5602 5596 5589
5729 5723 5714 5710 5713 5715 5708 5700 5697 5696 5694 5691 5686 5685 5682 5676 5673 5671 5667 5661 5653 5645 5638 5632 5626 5617 5609 5604 5599 5591 5586 5578
5709 5705 5703 5701 5702 5704 5692 5689 5689 5688 5685 5682 5677 5676 5673 5668 5664 5661 5657 5651 5645 5637 5632 5624 5616 5607 5598 5593 5587 5579 5572 5564
5698 5697 5693 5690 5688 5692 5686 5681 5680 5679 5676 5672 5669 5666 5663 5660 5659 5654 5647 5642 5636 5629 5622 5614 5603 5596 5589 5580 5575 5568 5558 5548
5677 5687 5692 5686 5684 5682 5682 5675 5672 5671 5668 5665 5661 5656 5652 5652 5647 5643 5635 5629 5624 5617 5608 5602 5593 5585 5570 5567 5565 5555 5546 5539
5673 5670 5677 5683 5680 5679 5677 5672 5664 5661 5659 5657 5655 5652 5648 5644 5638 5632 5626 5620 5614 5606 5599 5590 5579 5564 5556 5554 5551 5542 5533 5522
5672 5670 5670 5671 5676 5674 5674 5666 5657 5654 5651 5648 5644 5642 5639 5635 5630 5626 5619 5611 5604 5596 5586 5576 5560 5550 5545 5540 5532 5524 5515 5507